Date String (YYYY-MM-DD hh:mm:ss) UTC,Instrument flags,Ambient pressure (hPa),Sample flow (lpm),Bypass flow (lpm),Sample temperature (°C),Ambient temperature (°C),ASC tube jacket temperature (°C),LED temperature (°C),Box temperature (°C),Sample RH (%),Span deviation,Mass concentration (μg/m³),Mass concentration (μg/m³),Mass concentration (μg/m³)
DateTimeUTC,F1_M11,P_M11,Q1_M11,Q2_M11,T1_M11,T2_M11,T3_M11,T4_M11,T5_M11,U1_M11,ZSPAN_M11,X0_M11,X2_M11,X1_M11
2022-04-23 15:00:00,,0810.7,4.99,0.00,23.1,22.2,00.0,32.2,24.9,10.3,0000.0,0005.80,0000.40,0000.11
2022-04-23 15:01:00,,0810.6,4.99,0.00,23.1,22.2,00.0,32.2,24.8,10.1,0000.0,0005.11,0000.40,0000.11
2022-04-23 15:02:00,,0810.8,5.01,0.00,23.1,22.1,00.0,32.1,24.8,10.4,0000.0,0004.06,0000.42,0000.11
2022-04-23 15:03:00,,0810.9,5.00,0.00,23.1,22.1,00.0,32.1,24.8,10.7,0000.0,0003.78,0000.40,0000.11
2022-04-23 15:04:00,,0811.1,4.99,0.00,23.2,22.2,00.0,32.1,24.9,10.4,0000.0,0003.54,0000.40,0000.11
2022-04-23 15:05:00,,0811.0,4.99,0.00,23.2,22.2,00.0,32.1,24.9,10.3,0000.0,0003.42,0000.39,0000.11
2022-04-23 15:06:00,,0811.0,5.02,0.00,23.2,22.2,00.0,32.1,24.9,10.1,0000.0,0003.24,0000.37,0000.11
2022-04-23 15:07:00,,0810.9,5.01,0.00,23.2,22.2,00.0,32.2,24.9,10.2,0000.0,0003.00,0000.34,0000.10
2022-04-23 15:08:00,,0810.7,4.99,0.00,23.2,22.2,00.0,32.2,25.0,10.4,0000.0,0002.56,0000.33,0000.10
2022-04-23 15:09:00,,0810.6,5.00,0.00,23.2,22.2,00.0,32.2,25.0,10.5,0000.0,0002.57,0000.32,0000.10
2022-04-23 15:10:00,,0810.9,5.00,0.00,23.2,22.2,00.0,32.1,25.0,10.6,0000.0,0002.64,0000.34,0000.10
2022-04-23 15:11:00,,0811.1,5.01,0.00,23.2,22.2,00.0,32.2,25.0,10.7,0000.0,0001.71,0000.39,0000.10
2022-04-23 15:12:00,,0811.0,5.00,0.00,23.2,22.2,00.0,32.1,25.0,10.6,0000.0,0001.67,0000.42,0000.10
2022-04-23 15:13:00,,0811.0,4.99,0.00,23.2,22.2,00.0,32.2,25.0,10.5,0000.0,0002.35,0000.42,0000.10
2022-04-23 15:14:00,,0811.0,4.99,0.00,23.2,22.2,00.0,32.2,25.0,10.6,0000.0,0002.41,0000.42,0000.10
2022-04-23 15:15:00,,0811.0,5.02,0.00,23.2,22.2,00.0,32.2,25.0,10.5,0000.0,0002.20,0000.38,0000.10
2022-04-23 15:16:00,,0811.0,5.01,0.00,23.2,22.2,00.0,32.2,24.9,10.7,0000.0,0002.16,0000.38,0000.10
2022-04-23 15:17:00,,0811.0,4.99,0.00,23.2,22.2,00.0,32.2,24.9,10.7,0000.0,0002.16,0000.39,0000.10
2022-04-23 15:18:00,,0811.0,5.02,0.00,23.2,22.2,00.0,32.2,24.9,10.6,0000.0,0002.08,0000.40,0000.09
2022-04-23 15:19:00,,0810.9,5.00,0.00,23.2,22.2,00.0,32.2,24.9,10.6,0000.0,0002.18,0000.45,0000.10
2022-04-23 15:20:00,,0810.9,5.00,0.00,23.2,22.1,00.0,32.2,24.9,10.7,0000.0,0002.14,0000.45,0000.10
2022-04-23 15:21:00,,0811.0,4.99,0.00,23.2,22.1,00.0,32.2,24.9,10.8,0000.0,0002.64,0000.46,0000.09
2022-04-23 15:22:00,,0811.0,5.00,0.00,23.2,22.2,00.0,32.2,24.9,10.8,0000.0,0003.54,0000.46,0000.09
2022-04-23 15:23:00,,0810.9,5.01,0.00,23.2,22.2,00.0,32.2,25.0,11.0,0000.0,0003.57,0000.45,0000.09
2022-04-23 15:24:00,,0811.0,4.99,0.00,23.2,22.2,00.0,32.2,25.0,10.8,0000.0,0002.97,0000.44,0000.09
2022-04-23 15:25:00,,0810.8,5.00,0.00,23.2,22.2,00.0,32.2,25.0,10.6,0000.0,0002.69,0000.45,0000.09
2022-04-23 15:26:00,,0810.7,5.01,0.00,23.2,22.2,00.0,32.2,25.0,10.8,0000.0,0002.83,0000.50,0000.09
2022-04-23 15:27:00,,0810.7,5.00,0.00,23.2,22.2,00.0,32.2,25.0,10.9,0000.0,0003.52,0000.52,0000.09
2022-04-23 15:28:00,,0810.8,5.00,0.00,23.2,22.2,00.0,32.2,24.9,10.6,0000.0,0004.62,0000.55,0000.10
2022-04-23 15:29:00,,0810.8,5.00,0.00,23.2,22.1,00.0,32.1,24.9,10.7,0000.0,0005.66,0000.59,0000.10
2022-04-23 15:30:00,,0811.0,5.01,0.00,23.1,22.1,00.0,32.1,24.9,10.3,0000.0,0005.85,0000.58,0000.11
2022-04-23 15:31:00,,0811.2,5.00,0.00,23.1,22.1,00.0,32.1,24.9,10.4,0000.0,0006.12,0000.61,0000.11
2022-04-23 15:32:00,,0811.1,4.98,0.00,23.1,22.1,00.0,32.1,24.8,10.4,0000.0,0005.76,0000.64,0000.11
2022-04-23 15:33:00,,0811.0,5.01,0.00,23.1,22.1,00.0,32.1,24.8,10.7,0000.0,0005.93,0000.62,0000.11
2022-04-23 15:34:00,,0811.2,4.99,0.00,23.1,22.1,00.0,32.1,24.8,10.6,0000.0,0005.93,0000.61,0000.11
2022-04-23 15:35:00,,0811.2,5.00,0.00,23.1,22.0,00.0,32.1,24.8,10.7,0000.0,0005.97,0000.62,0000.10
2022-04-23 15:36:00,,0811.2,5.01,0.00,23.1,22.0,00.0,32.1,24.8,10.6,0000.0,0005.75,0000.59,0000.10
2022-04-23 15:37:00,,0811.4,4.99,0.00,23.1,22.0,00.0,32.1,24.8,10.7,0000.0,0005.67,0000.57,0000.10
2022-04-23 15:38:00,,0811.2,5.01,0.00,23.1,22.0,00.0,32.1,24.8,10.8,0000.0,0005.10,0000.57,0000.09
2022-04-23 15:39:00,,0811.2,5.01,0.00,23.1,22.0,00.0,32.1,24.8,10.4,0000.0,0005.08,0000.56,0000.09
2022-04-23 15:40:00,,0811.1,4.99,0.00,23.1,22.0,00.0,32.1,24.8,10.5,0000.0,0005.46,0000.51,0000.08
2022-04-23 15:41:00,,0810.8,4.98,0.00,23.1,22.0,00.0,32.1,24.9,10.8,0000.0,0005.79,0000.52,0000.07
2022-04-23 15:42:00,,0811.3,5.00,0.00,23.1,22.0,00.0,32.1,24.9,10.6,0000.0,0007.49,0000.63,0000.08
2022-04-23 15:43:00,,0811.1,5.01,0.00,23.1,22.0,00.0,32.1,24.9,10.4,0000.0,0007.59,0000.57,0000.08
2022-04-23 15:44:00,,0811.1,5.01,0.00,23.1,22.0,00.0,32.1,24.8,10.3,0000.0,0006.83,0000.55,0000.08
2022-04-23 15:45:00,,0811.2,4.99,0.00,23.0,22.0,00.0,32.1,24.8,10.4,0000.0,0006.40,0000.54,0000.08
2022-04-23 15:46:00,,0811.2,5.00,0.00,23.0,22.1,00.0,32.1,24.8,10.6,0000.0,0006.31,0000.53,0000.09
2022-04-23 15:47:00,,0811.0,4.99,0.00,23.0,22.1,00.0,32.1,24.8,10.7,0000.0,0006.32,0000.53,0000.09
2022-04-23 15:48:00,,0811.1,5.01,0.00,23.0,22.1,00.0,32.1,24.8,10.4,0000.0,0006.94,0000.54,0000.10
2022-04-23 15:49:00,,0811.0,5.00,0.00,23.0,22.1,00.0,32.1,24.8,10.5,0000.0,0007.05,0000.52,0000.10
2022-04-23 15:50:00,,0810.9,4.98,0.00,23.0,22.0,00.0,32.1,24.8,10.4,0000.0,0006.41,0000.53,0000.10
2022-04-23 15:51:00,,0810.8,5.00,0.00,23.0,22.0,00.0,32.1,24.8,10.3,0000.0,0006.98,0000.61,0000.10
2022-04-23 15:52:00,,0811.0,5.01,0.00,23.0,22.0,00.0,32.0,24.9,10.6,0000.0,0008.18,0000.74,0000.11
2022-04-23 15:53:00,,0811.2,5.01,0.00,23.0,21.9,00.0,32.0,24.8,10.6,0000.0,0007.61,0000.69,0000.11
2022-04-23 15:54:00,,0811.2,5.00,0.00,23.0,22.0,00.0,32.0,24.8,10.6,0000.0,0007.46,0000.74,0000.12
2022-04-23 15:55:00,,0811.3,4.99,0.00,23.0,22.0,00.0,32.0,24.8,10.6,0000.0,0007.51,0000.77,0000.12
2022-04-23 15:56:00,,0811.4,5.00,0.00,23.0,22.0,00.0,32.0,24.7,10.3,0000.0,0007.51,0000.77,0000.12
2022-04-23 15:57:00,,0811.4,5.01,0.00,22.9,22.0,00.0,32.0,24.7,10.3,0000.0,0007.49,0000.75,0000.11
2022-04-23 15:58:00,,0811.5,5.01,0.00,23.0,22.0,00.0,32.0,24.7,10.6,0000.0,0007.56,0000.78,0000.11
2022-04-23 15:59:00,,0811.5,4.99,0.00,23.0,21.9,00.0,32.0,24.7,10.5,0000.0,0007.37,0000.80,0000.12
